Regional Weather Roundup
Issued by NWS Portland, ME

Home | Current Version | Previous Version | Text Only | Print | Product List | Glossary On
Versions: 1 2 3 4 5 6 7 8 9 10 11 12 13 14 15 16 17 18 19 20 21 22 23 24 25 26 27 28 29 30 31 32 33 34 35 36 37 38 39 40 41 42 43 44 45 46 47 48 49 50
000
ASUS41 KGYX 171810
RWRGYX
WEATHER ROUNDUP FOR MAINE AND NEW HAMPSHIRE
NATIONAL WEATHER SERVICE GRAY ME
200 PM EDT WED SEP 17 2014

MEZ002-005-006-010-012-015-018-020-021-024-026-027-029-171900-
MAINE

CITY           SKY/WX    TMP DP  RH WIND       PRES   REMARKS
PORTLAND       MOSUNNY   64  47  53 SE12      29.98F
6HR MIN TEMP:  51; 6HR MAX TEMP:  66;

SANFORD        MOSUNNY   66  46  48 E8        29.97F
BAR HARBOR     MOSUNNY   66  45  45 S13       29.95F
WISCASSET      PTSUNNY   65  45  48 VRB7      29.98F
6HR MIN TEMP:  52; 6HR MAX TEMP:  68;

ROCKLAND       PTSUNNY   64  45  48 S12       29.96S
FRYEBURG       MOSUNNY   70  41  34 VRB7      29.96F
6HR MIN TEMP:  45; 6HR MAX TEMP:  70;

LEWISTONAUBURN MOSUNNY   66  45  45 SW9       29.97S
AUGUSTA        MOSUNNY   67  43  41 SW8       29.96F
6HR MIN TEMP:  50; 6HR MAX TEMP:  67;

WATERVILLE     MOSUNNY   66  45  45 W8        29.91F
BANGOR         MOSUNNY   68  40  35 W7        29.95F
6HR MIN TEMP:  49; 6HR MAX TEMP:  69;

GREENVILLE       N/A     59  43  55 CALM      29.92F
6HR MIN TEMP:  49; 6HR MAX TEMP:  61;

MILLINOCKET    MOSUNNY   67  41  38 NW7G17    29.93F
6HR MIN TEMP:  46; 6HR MAX TEMP:  67;

HOULTON        PTSUNNY   62  43  49 W12       29.90S
6HR MIN TEMP:  50; 6HR MAX TEMP:  66;

PRESQUE ISLE   PTSUNNY   55  43  62 N8        29.93S
6HR MIN TEMP:  46; 6HR MAX TEMP:  57;

FRENCHVILLE    PTSUNNY   50  32  50 NW9       29.93F
6HR MIN TEMP:  45; 6HR MAX TEMP:  53;

CARIBOU        CLOUDY    55  41  59 NW8       29.93S
6HR MIN TEMP:  48; 6HR MAX TEMP:  57;

$$

NHZ002-005-008-009-011-012-014-171900-
NEW HAMPSHIRE

CITY           SKY/WX    TMP DP  RH WIND       PRES   REMARKS
PORTSMOUTH     MOSUNNY   65  47  53 SE6       29.95F
ROCHESTER      MOSUNNY   65  43  44 VRB3      29.96F
6HR MIN TEMP:  50; 6HR MAX TEMP:  69;

NASHUA         LGT RAIN  68  44  41 CALM      29.98F
MANCHESTER     MOSUNNY   68  42  38 CALM      29.96F
6HR MIN TEMP:  50; 6HR MAX TEMP:  69;

CONCORD        MOSUNNY   65  42  43 VRB3      29.97F
6HR MIN TEMP:  47; 6HR MAX TEMP:  68;

LACONIA        SUNNY     64  43  45 W8        29.96F
PLYMOUTH       FAIR      64  51  61 CALM      29.96F
BERLIN         SUNNY     65  41  41 VRB5      29.96F
6HR MIN TEMP:  37; 6HR MAX TEMP:  65;

WHITEFIELD     SUNNY     64  40  41 VRB6      29.97F
6HR MIN TEMP:  44; 6HR MAX TEMP:  64;

JAFFREY        MOSUNNY   63  41  44 VRB6      30.00F
6HR MIN TEMP:  44; 6HR MAX TEMP:  63;

LEBANON        MOSUNNY   65  40  39 VRB5      29.97F
6HR MIN TEMP:  46; 6HR MAX TEMP:  65;

MT WASHINGTON  NOT AVBL
$$

VTZ005-007-008-171900-
VERMONT

CITY           SKY/WX    TMP DP  RH WIND       PRES   REMARKS
ST JOHNSBURY     N/A     63  44  50 MISG      29.94F
MONTPELIER     PTSUNNY   60  45  57 NW6       30.00F
BURLINGTON     MOSUNNY   66  41  40 S7        29.96F
$$

MAZ007-012-024-CTZ003-RIZ002-NYZ038-NYZ072-171900-
SOUTHERN NEW ENGLAND AND NY

CITY           SKY/WX    TMP DP  RH WIND       PRES   REMARKS
BOSTON         MOSUNNY   68  47  46 E9        29.96F
WORCESTER      SUNNY     64  42  44 W10       29.99F
NANTUCKET      MOSUNNY   69  55  60 S10       29.98F
PROVIDENCE     MOSUNNY   71  42  35 W8        29.97F
HARTFORD       MOSUNNY   71  40  32 W10       29.98F
ALBANY         MOSUNNY   67  47  48 N6        30.00F
NEW YORK CITY  MOSUNNY   70  41  34 NW9       29.99F
$$

ANZ081-ANZ082-ANZ150-NHZ014-MEZ023>029-171900-
COASTAL MARINE OBSERVATIONS

STATION/POSITION TIME  TEMP    WIND        PRES    WAVE
                       AIR SEA DIR/SP/G            HT/PER
                 (UTC) (F)     (DEG/KT/KT) (MB)    (FT/S)
MATINICUS ROCK   1800          230/  4/  5 1014.9F
PORTLAND WX BUOY 1750   60 63  140/  4/  4 1015.1F   3/14
WELLS            1700   62 59  160/  8/  9 1014.6F
ISLE OF SHOALS   1800   60     120/  4/  5 1014.2F
JEFFREYS LEDGE   1721      65                N/A     2/14
CASHES LEDGE BUO 1750   62 64              1014.8F   3/13
$$

.............KEY..............
   WCI - WIND CHILL
   TC  - TEMPERATURE IN CELSIUS
   VSB - VISIBILITY IN MILES
   HX  - HEAT INDEX
   FAIR- INDICATES FEW OR NO CLOUDS BELOW 12,000 FT, WITH NO
         SIGNIFICANT WEATHER AND/OR OBSTRUCTIONS TO VISIBILITY.




USA.gov is the U.S. government's official web portal to all federal, state and local government web resources and services.